Regional Weather Roundup
Issued by NWS Charleston, SC

Current Version | Previous Version | Graphics & Text | Print | Product List | Glossary On
Versions: 1 2 3 4 5 6 7 8 9 10 11 12 13 14 15 16 17 18 19 20 21 22 23 24 25 26 27 28 29 30 31 32 33 34 35 36 37 38 39 40 41 42 43 44 45 46 47 48 49 50
000 ASUS42 KCHS 241127 RWRCHS REGIONAL WEATHER ROUNDUP NATIONAL WEATHER SERVICE CHARLESTON SC 700 AM EDT MON APR 24 2017 NOTE: "FAIR" INDICATES FEW OR NO CLOUDS BELOW 12,000 FEET WITH NO SIGNIFICANT WEATHER AND/OR OBSTRUCTIONS TO VISIBILITY. NOT ALL STATIONS ARE QUALITY CONTROLLED. USE DATA WITH CAUTION... ESPECIALLY DEWPOINT OBSERVATIONS. SCZ027-030-031-034>040-042>050-241200- ...SOUTHEAST SOUTH CAROLINA... CITY SKY/WX TMP DP RH WIND PRES REMARKS N CHARLESTON CLOUDY 70 67 90 E8 29.68F WATERFRONT PRK N/A 71 69 93 SE13 29.67F JOHNS ISLAND CLOUDY 70 68 94 SE9G18 29.68S FOG PINOPOLIS N/A 66 66 100 NE12 29.61S MONCKS CORNER RAIN 66 66 100 NE5 29.69F SUMMERVILLE CLOUDY 68 68 100 E5 29.70S BEAUFORT MCAS CLOUDY 70 69 97 W5 29.67R BEAUFORT ARPT PTSUNNY 72 68 88 SW6 29.67R HILTON HEAD IS MOCLDY 72 68 88 SW8 29.68R WALTERBORO TSTM 68 66 94 W13G31 29.71R VSB 1/2 ALLENDALE CLOUDY 64 64 100 CALM 29.66S ...SOUTHERN MIDLANDS AND PEE DEE... CITY SKY/WX TMP DP RH WIND PRES REMARKS GEORGETOWN CLOUDY 64 64 100 N6 29.73F THUNDER KINGSTREE CLOUDY 59 57 94 NE9 29.73F ORANGEBURG LGT RAIN 64 63 96 NE10 29.70S BARNWELL CLOUDY 63 63 100 N8 29.68S AIKEN CLOUDY 54 54 100 N8 29.75S MANNING RAIN 59 57 94 E9G18 29.73R COLUMBIA LGT RAIN 61 59 93 NE6 29.72S SUMTER LGT RAIN 61 59 94 E10 29.71R FLORENCE LGT RAIN 58 58 100 NE12 29.77F MYRTLE BEACH LGT RAIN 72 68 88 S13 29.75 N MYRTLE BEACH CLOUDY 67 66 97 NE8 29.74F $$ GAZ063-065-086>088-099>101-113>116-118-119-134>141-150-241200- ...SOUTHEAST GEORGIA... CITY SKY/WX TMP DP RH WIND PRES REMARKS SAVANNAH ARPT PTCLDY 68 64 87 SW6 29.67S HUNTER AAF PTCLDY 68 68 100 SW3 29.65S FORT STEWART MOCLDY 67 65 95 S5 29.66R STATESBORO CLOUDY 67 67 100 CALM 29.67S SYLVANIA CLOUDY 70 66 88 NW3 29.68R CLAXTON RAIN N/A N/A N/A SW6 29.69R ...CSRA...CENTRAL AND FAR SOUTHEAST GEORGIA... CITY SKY/WX TMP DP RH WIND PRES REMARKS THOMSON TSTM 54 53 96 NE7 29.78R FOG AUGUSTA-BUSH LGT RAIN 60 57 89 N8 29.70S AUGUSTA-DANIEL RAIN 58 54 86 N5 29.72R FOG SWAINSBORO CLOUDY 63 63 100 CALM 29.70R VIDALIA CLOUDY 63 61 94 W5 29.71R EASTMAN CLOUDY 61 61 100 NW3 29.74S FOG HAZLEHURST CLOUDY 62 62 100 CALM 29.71R ALMA CLOUDY 61 61 100 W5 29.71R WAYCROSS PTCLDY 64 64 100 W7 29.72R JESUP CLOUDY 64 59 82 W5 29.70S BAXLEY CLOUDY 63 63 100 W5 29.71R BRUNSWICK MOCLDY 68 66 94 W5 29.70S SAINT SIMONS CLOUDY 70 66 87 SW8 29.69R $$ SCZ027-028-034-036>038-045-046-048>050-GAZ119-141-241200- ...LAKE AND SUPPLEMENTAL COASTAL OBSERVATIONS... STATION/POSITION TIME TEMP WIND PRES WAVE SWELL AIR SEA DIR/SP/G HT/PER HT/PER/DIR (UTC) (F) (DEG/KT/KT) (MB) (FT/S) (FT/S/D) WINYAH BAY 1045 71 160/ 14 1006.0S LAKE MURRAY 1120 57 360/ 4/ 8 1006.8 ACE BASIN NERRS 1045 73 180/ 2 1004.0F FORT PULASKI 1100 71 74 240/ 7/ 10 1005.0 SAPELO ISLAND 1030 70 210/ 7 1005.0S $$ ANZ835-935-AMZ111-154-330-350-352-354-370-450-454-472-241200- ...C-MAN AND BUOY OBSERVATIONS... STATION/POSITION TIME TEMP WIND PRES WAVE SWELL AIR SEA DIR/SP/G HT/PER HT/PER/DIR (UTC) (F) (DEG/KT/KT) (MB) (FT/S) (FT/S/D) BUOY 41004 1110 74 74 150/ 21/ 27 1005.6 BUOY 41008 1050 72 71 200/ 14/ 16 1004.5R 5/ 6 2/ 90/12 FOLLY BEACH CMAN 1100 71 170/ 22/ 26 1006.0F CAPERS NEARSHORE 1108 74 72 170/ 16/ 21 1005.1S FRIPP NEARSHORE 1108 72 72 210/ 16/ 19 1004.6R STATION/POSITION TIME TEMP WIND PRES WAVE SWELL AIR SEA DIR/SP/G HT/PER HT/PER/DIR (UTC) (F) (DEG/KT/KT) (MB) (FT/S) (FT/S/D) 5E ST. MARYS GA 1100 73 N/A 4/ 5 2/100/12 FRYING PAN BUOY 1110 72 75 130/ 19/ 27 1008.1 BUOY 41025 1050 74 78 190/ 14/ 21 1011.4R 8/11 7/ 60/11 CAPE LOOKOUT NC 1100 69 90/ 3/ 4 1010.0R BUOY 41002 1050 72 75 130/ 21/ 27 1010.2R 7/ 6 2/ 30/11 BUOY 41010 1110 75 78 110/ 4/ 8 1006.0 ST AUGUSTINE FL 1100 69 74 220/ 6/ 8 1007.1R $$

USA.gov is the U.S. government's official web portal to all federal, state and local government web resources and services.